Wetterdaten: aktuell Donnerstag, 20.02.2020 05:48
Datum Zeit Temp. I. Temp. 2m Temp. 5cm Temp. Gr 2m LF I. Luftf.2m LG Graben Luftdruck Regen Wind Richtung Richtung Taupunkt Windchill Windben
20.02.2020 05:48 19,0 C -0,6 C -1,6 C -1,0 C 39 % 89 % 90 % 1022,9 hPa 0,0 l/m 3,7 km/h (1 Bft) W-NW 292 -2,2 C -0,6 C 11,1 km/h (2 Bft)
20.02.2020 05:46 18,9 C -0,5 C -1,7 C -0,9 C 39 % 89 % 90 % 1022,9 hPa 0,0 l/m 2,7 km/h (1 Bft) W-NW 292 -2,1 C -0,5 C 10,1 km/h (2 Bft)
20.02.2020 05:44 18,9 C -0,5 C -2,1 C -0,9 C 39 % 89 % 90 % 1022,9 hPa 0,0 l/m 2,6 km/h (1 Bft) W 270 -2,1 C -0,5 C 5,3 km/h (1 Bft)
20.02.2020 05:42 18,8 C -0,5 C -2,0 C -1,0 C 39 % 89 % 90 % 1022,9 hPa 0,0 l/m 3,5 km/h (1 Bft) N-NW 337 -2,1 C -0,5 C 8,9 km/h (2 Bft)
20.02.2020 05:40 18,8 C -0,5 C -2,0 C -1,0 C 39 % 89 % 90 % 1022,9 hPa 0,0 l/m 4,2 km/h (1 Bft) S-SO 157 -2,1 C -0,5 C 8,9 km/h (2 Bft)
20.02.2020 05:38 18,8 C -0,5 C -1,6 C -1,0 C 39 % 89 % 90 % 1022,9 hPa 0,0 l/m 4,8 km/h (1 Bft) S-SO 157 -2,1 C -0,5 C 6,8 km/h (2 Bft)
20.02.2020 05:36 18,7 C -0,5 C -0,8 C -1,2 C 40 % 89 % 89 % 1022,9 hPa 0,0 l/m 4,8 km/h (1 Bft) N 360 -2,1 C -0,5 C 11,8 km/h (2 Bft)
20.02.2020 05:34 18,7 C -0,5 C -0,6 C -1,3 C 40 % 88 % 89 % 1022,9 hPa 0,0 l/m 4,8 km/h (1 Bft) NW 315 -2,2 C -0,5 C 25,3 km/h (4 Bft)
20.02.2020 05:32 18,6 C -0,5 C -0,5 C -1,6 C 40 % 88 % 89 % 1022,9 hPa 0,0 l/m 4,5 km/h (1 Bft) N-NW 337 -2,2 C -0,5 C 25,3 km/h (4 Bft)
20.02.2020 05:30 18,6 C -0,6 C -0,8 C -1,7 C 40 % 88 % 89 % 1022,8 hPa 0,0 l/m 3,7 km/h (1 Bft) W-NW 292 -2,3 C -0,6 C 8,0 km/h (2 Bft)
20.02.2020 05:28 18,6 C -0,6 C -0,6 C -1,8 C 40 % 88 % 89 % 1022,8 hPa 0,0 l/m 3,4 km/h (1 Bft) N-NO 22 -2,3 C -0,6 C 8,0 km/h (2 Bft)
20.02.2020 05:26 18,6 C -0,6 C -0,6 C -1,8 C 40 % 88 % 89 % 1022,8 hPa 0,0 l/m 2,6 km/h (1 Bft) SO 135 -2,3 C -0,6 C 8,7 km/h (2 Bft)
20.02.2020 05:24 18,5 C -0,6 C -1,2 C -1,8 C 40 % 88 % 89 % 1022,8 hPa 0,0 l/m 2,4 km/h (1 Bft) NW 315 -2,3 C -0,6 C 8,7 km/h (2 Bft)
20.02.2020 05:22 18,5 C -0,5 C -1,7 C -1,8 C 40 % 88 % 89 % 1022,8 hPa 0,0 l/m 1,8 km/h (1 Bft) W-NW 292 -2,2 C -0,5 C 6,8 km/h (2 Bft)
20.02.2020 05:20 18,5 C -0,5 C -2,9 C -1,7 C 40 % 88 % 89 % 1022,8 hPa 0,0 l/m 1,4 km/h (1 Bft) N-NW 337 -2,2 C -0,5 C 4,3 km/h (1 Bft)
20.02.2020 05:18 18,5 C -0,5 C -2,8 C -1,7 C 40 % 88 % 89 % 1022,8 hPa 0,0 l/m 1,3 km/h (1 Bft) N-NW 337 -2,2 C -0,5 C 0,0 km/h (0 Bft)
20.02.2020 05:16 18,4 C -0,3 C -2,8 C -1,6 C 40 % 88 % 89 % 1022,8 hPa 0,0 l/m 1,3 km/h (1 Bft) NO 45 -2,0 C -0,3 C 4,6 km/h (1 Bft)
20.02.2020 05:14 18,4 C -0,3 C -2,6 C -1,6 C 40 % 88 % 89 % 1022,8 hPa 0,0 l/m 1,6 km/h (1 Bft) NW 315 -2,0 C -0,3 C 4,6 km/h (1 Bft)
20.02.2020 05:12 18,4 C -0,3 C -2,2 C -1,4 C 40 % 88 % 89 % 1022,8 hPa 0,0 l/m 1,3 km/h (1 Bft) W-NW 292 -2,0 C -0,3 C 4,1 km/h (1 Bft)
20.02.2020 05:10 18,4 C -0,3 C -2,4 C -1,4 C 40 % 88 % 89 % 1022,8 hPa 0,0 l/m 1,1 km/h (1 Bft) NW 315 -2,0 C -0,3 C 4,1 km/h (1 Bft)
20.02.2020 05:08 18,4 C -0,2 C -2,1 C -1,3 C 39 % 88 % 89 % 1022,8 hPa 0,0 l/m 1,4 km/h (1 Bft) N-NW 337 -1,9 C -0,2 C 3,9 km/h (1 Bft)
20.02.2020 05:06 18,4 C -0,2 C -1,4 C -1,3 C 39 % 88 % 89 % 1022,8 hPa 0,0 l/m 1,9 km/h (1 Bft) N-NW 337 -1,9 C -0,2 C 3,4 km/h (1 Bft)
20.02.2020 05:04 18,4 C -0,2 C -1,4 C -1,3 C 39 % 88 % 89 % 1022,8 hPa 0,0 l/m 2,1 km/h (1 Bft) NW 315 -1,9 C -0,2 C 3,4 km/h (1 Bft)
20.02.2020 05:02 18,4 C -0,2 C -1,0 C -1,3 C 39 % 88 % 89 % 1022,8 hPa 0,0 l/m 2,1 km/h (1 Bft) W 270 -1,9 C -0,2 C 5,3 km/h (1 Bft)
20.02.2020 05:00 18,4 C -0,2 C -0,9 C -1,3 C 39 % 88 % 89 % 1022,8 hPa 0,0 l/m 2,7 km/h (1 Bft) W 270 -1,9 C -0,2 C 7,7 km/h (2 Bft)
20.02.2020 04:58 18,4 C -0,2 C -0,8 C -1,3 C 39 % 88 % 89 % 1022,8 hPa 0,0 l/m 2,6 km/h (1 Bft) NW 315 -1,9 C -0,2 C 7,7 km/h (2 Bft)
20.02.2020 04:56 18,4 C -0,3 C -1,2 C -1,3 C 39 % 88 % 89 % 1022,8 hPa 0,0 l/m 1,8 km/h (1 Bft) W 270 -2,0 C -0,3 C 4,3 km/h (1 Bft)
20.02.2020 04:54 18,5 C -0,2 C -1,3 C -1,2 C 39 % 88 % 89 % 1022,8 hPa 0,0 l/m 1,4 km/h (1 Bft) W 270 -1,9 C -0,2 C 5,3 km/h (1 Bft)
20.02.2020 04:52 18,4 C -0,2 C -1,7 C -1,2 C 39 % 88 % 89 % 1022,8 hPa 0,0 l/m 1,8 km/h (1 Bft) NW 315 -1,9 C -0,2 C 7,0 km/h (2 Bft)
20.02.2020 04:50 18,4 C -0,2 C -1,7 C -1,0 C 39 % 88 % 89 % 1022,7 hPa 0,0 l/m 1,1 km/h (1 Bft) NW 315 -1,9 C -0,2 C 7,0 km/h (2 Bft)
20.02.2020 04:48 18,5 C -0,2 C -2,0 C -0,9 C 39 % 88 % 89 % 1022,7 hPa 0,0 l/m 1,1 km/h (1 Bft) W 270 -1,9 C -0,2 C 3,6 km/h (1 Bft)
20.02.2020 04:46 18,4 C -0,2 C -1,8 C -0,7 C 39 % 88 % 89 % 1022,7 hPa 0,0 l/m 1,3 km/h (1 Bft) SW 225 -1,9 C -0,2 C 0,0 km/h (0 Bft)
20.02.2020 04:44 18,5 C -0,1 C -1,4 C -0,6 C 39 % 88 % 89 % 1022,7 hPa 0,0 l/m 1,6 km/h (1 Bft) S-SO 157 -1,8 C -0,1 C 10,4 km/h (2 Bft)
20.02.2020 04:42 18,5 C -0,1 C -1,4 C -0,6 C 39 % 88 % 89 % 1022,7 hPa 0,0 l/m 1,4 km/h (1 Bft) W 270 -1,8 C -0,1 C 10,4 km/h (2 Bft)
20.02.2020 04:40 18,5 C -0,1 C -1,6 C -0,6 C 39 % 88 % 89 % 1022,7 hPa 0,0 l/m 1,0 km/h (0 Bft) SW 225 -1,8 C -0,1 C 4,1 km/h (1 Bft)
20.02.2020 04:38 18,5 C -0,1 C -1,6 C -0,5 C 39 % 88 % 89 % 1022,7 hPa 0,0 l/m 1,0 km/h (0 Bft) O-SO 112 -1,8 C -0,1 C 4,3 km/h (1 Bft)
20.02.2020 04:36 18,5 C -0,1 C -1,7 C -0,5 C 39 % 88 % 89 % 1022,7 hPa 0,0 l/m 1,0 km/h (0 Bft) N-NW 337 -1,8 C -0,1 C 4,3 km/h (1 Bft)
20.02.2020 04:34 18,5 C 0,1 C -2,0 C -0,5 C 39 % 88 % 89 % 1022,7 hPa 0,0 l/m 0,8 km/h (0 Bft) NW 315 -1,6 C 0,1 C 3,1 km/h (1 Bft)
20.02.2020 04:32 18,5 C 0,1 C -2,2 C -0,5 C 39 % 88 % 89 % 1022,7 hPa 0,0 l/m 1,0 km/h (0 Bft) SW 225 -1,6 C 0,1 C 2,9 km/h (1 Bft)
20.02.2020 04:30 18,5 C 0,2 C -2,0 C -0,5 C 39 % 88 % 89 % 1023,0 hPa 0,0 l/m 1,6 km/h (1 Bft) S 180 -1,5 C 0,2 C 2,9 km/h (1 Bft)
20.02.2020 04:28 18,5 C 0,2 C -1,7 C -0,5 C 39 % 88 % 89 % 1023,0 hPa 0,0 l/m 2,1 km/h (1 Bft) SW 225 -1,5 C 0,2 C 7,5 km/h (2 Bft)
20.02.2020 04:26 18,5 C 0,2 C -1,6 C -0,6 C 39 % 88 % 89 % 1023,0 hPa 0,0 l/m 2,3 km/h (1 Bft) SW 225 -1,5 C 0,2 C 7,5 km/h (2 Bft)
20.02.2020 04:24 18,5 C 0,2 C -1,7 C -0,5 C 39 % 88 % 88 % 1023,0 hPa 0,0 l/m 1,9 km/h (1 Bft) W-SW 247 -1,5 C 0,2 C 5,6 km/h (1 Bft)
20.02.2020 04:22 18,5 C 0,1 C -1,6 C -0,5 C 39 % 88 % 88 % 1023,0 hPa 0,0 l/m 2,1 km/h (1 Bft) W 270 -1,6 C 0,1 C 5,8 km/h (2 Bft)
20.02.2020 04:20 18,5 C 0,1 C -1,7 C -0,4 C 39 % 88 % 88 % 1023,0 hPa 0,0 l/m 2,4 km/h (1 Bft) W-NW 292 -1,6 C 0,1 C 5,8 km/h (2 Bft)
20.02.2020 04:18 18,5 C 0,1 C -1,8 C -0,3 C 39 % 88 % 88 % 1023,0 hPa 0,0 l/m 1,4 km/h (1 Bft) O-NO 67 -1,6 C 0,1 C 0,0 km/h (0 Bft)
20.02.2020 04:16 18,5 C 0,1 C -1,8 C -0,3 C 39 % 88 % 88 % 1023,0 hPa 0,0 l/m 1,6 km/h (1 Bft) NO 45 -1,6 C 0,1 C 3,4 km/h (1 Bft)
20.02.2020 04:14 18,6 C 0,2 C -1,4 C -0,5 C 39 % 89 % 88 % 1023,0 hPa 0,0 l/m 1,8 km/h (1 Bft) O-NO 67 -1,4 C 0,2 C 3,4 km/h (1 Bft)
20.02.2020 04:12 18,6 C 0,2 C -1,0 C -0,5 C 39 % 89 % 88 % 1023,0 hPa 0,0 l/m 2,4 km/h (1 Bft) W 270 -1,4 C 0,2 C 10,1 km/h (2 Bft)
20.02.2020 04:10 18,6 C 0,2 C -1,0 C -0,4 C 39 % 89 % 88 % 1023,0 hPa 0,0 l/m 1,9 km/h (1 Bft) W 270 -1,4 C 0,2 C 10,1 km/h (2 Bft)
20.02.2020 04:08 18,6 C 0,2 C -1,2 C -0,4 C 39 % 89 % 88 % 1023,0 hPa 0,0 l/m 1,6 km/h (1 Bft) S-SW 202 -1,4 C 0,2 C 0,0 km/h (0 Bft)
20.02.2020 04:06 18,6 C 0,3 C -0,9 C -0,4 C 39 % 89 % 88 % 1023,0 hPa 0,0 l/m 1,9 km/h (1 Bft) SW 225 -1,3 C 0,3 C 6,3 km/h (2 Bft)
20.02.2020 04:04 18,6 C 0,2 C -1,0 C -0,2 C 39 % 89 % 88 % 1023,0 hPa 0,0 l/m 2,1 km/h (1 Bft) NW 315 -1,4 C 0,2 C 8,2 km/h (2 Bft)
20.02.2020 04:02 18,6 C 0,2 C -1,3 C -0,1 C 39 % 89 % 88 % 1023,0 hPa 0,0 l/m 1,9 km/h (1 Bft) N-NW 337 -1,4 C 0,2 C 8,2 km/h (2 Bft)
20.02.2020 04:00 18,6 C 0,3 C -1,3 C 0,0 C 39 % 89 % 88 % 1023,0 hPa 0,0 l/m 1,4 km/h (1 Bft) W 270 -1,3 C 0,3 C 3,4 km/h (1 Bft)
20.02.2020 03:58 18,6 C 0,3 C -1,2 C 0,0 C 39 % 89 % 88 % 1023,0 hPa 0,0 l/m 1,8 km/h (1 Bft) N-NO 22 -1,3 C 0,3 C 3,4 km/h (1 Bft)
20.02.2020 03:56 18,6 C 0,3 C -1,2 C 0,2 C 39 % 89 % 88 % 1023,0 hPa 0,0 l/m 1,6 km/h (1 Bft) NW 315 -1,3 C 0,3 C 3,4 km/h (1 Bft)
20.02.2020 03:54 18,6 C 0,3 C -1,2 C 0,2 C 39 % 89 % 88 % 1023,0 hPa 0,0 l/m 2,3 km/h (1 Bft) W-SW 247 -1,3 C 0,3 C 5,8 km/h (2 Bft)
20.02.2020 03:52 18,6 C 0,4 C -0,9 C 0,3 C 39 % 89 % 88 % 1023,0 hPa 0,0 l/m 2,4 km/h (1 Bft) W 270 -1,2 C 0,4 C 5,8 km/h (2 Bft)
20.02.2020 03:50 18,6 C 0,4 C -0,9 C 0,3 C 39 % 89 % 88 % 1023,1 hPa 0,0 l/m 2,6 km/h (1 Bft) W 270 -1,2 C 0,4 C 0,0 km/h (0 Bft)
20.02.2020 03:48 18,6 C 0,4 C -0,8 C 0,3 C 39 % 89 % 88 % 1023,1 hPa 0,0 l/m 2,4 km/h (1 Bft) W 270 -1,2 C 0,4 C 7,0 km/h (2 Bft)
20.02.2020 03:46 18,6 C 0,4 C -0,5 C 0,3 C 39 % 89 % 88 % 1023,1 hPa 0,0 l/m 2,7 km/h (1 Bft) W-SW 247 -1,2 C 0,4 C 7,2 km/h (2 Bft)
20.02.2020 03:44 18,6 C 0,4 C -0,5 C 0,3 C 39 % 89 % 88 % 1023,1 hPa 0,0 l/m 2,7 km/h (1 Bft) W 270 -1,2 C 0,4 C 7,2 km/h (2 Bft)
20.02.2020 03:42 18,6 C 0,4 C -0,5 C 0,4 C 39 % 89 % 88 % 1023,1 hPa 0,0 l/m 2,3 km/h (1 Bft) W 270 -1,2 C 0,4 C 5,8 km/h (2 Bft)
20.02.2020 03:40 18,6 C 0,4 C -0,5 C 0,4 C 39 % 89 % 88 % 1023,1 hPa 0,0 l/m 2,1 km/h (1 Bft) W 270 -1,2 C 0,4 C 5,8 km/h (2 Bft)
20.02.2020 03:38 18,6 C 0,5 C -0,4 C 0,4 C 39 % 89 % 88 % 1023,1 hPa 0,0 l/m 2,7 km/h (1 Bft) W 270 -1,1 C 0,5 C 7,2 km/h (2 Bft)
20.02.2020 03:36 18,6 C 0,5 C -0,3 C 0,5 C 39 % 89 % 88 % 1023,1 hPa 0,0 l/m 3,7 km/h (1 Bft) W-SW 247 -1,1 C 0,5 C 7,7 km/h (2 Bft)
20.02.2020 03:34 18,7 C 0,5 C -0,4 C 0,5 C 39 % 89 % 88 % 1023,1 hPa 0,0 l/m 4,3 km/h (1 Bft) W-NW 292 -1,1 C 0,5 C 7,7 km/h (2 Bft)
20.02.2020 03:32 18,7 C 0,5 C -0,5 C 0,5 C 39 % 89 % 88 % 1023,1 hPa 0,0 l/m 4,5 km/h (1 Bft) W 270 -1,1 C 0,5 C 2,7 km/h (1 Bft)
20.02.2020 03:30 18,7 C 0,5 C -0,4 C 0,5 C 39 % 89 % 88 % 1023,0 hPa 0,0 l/m 4,3 km/h (1 Bft) S-SW 202 -1,1 C 0,5 C 12,3 km/h (3 Bft)
20.02.2020 03:28 18,7 C 0,5 C -0,3 C 0,5 C 39 % 89 % 88 % 1023,0 hPa 0,0 l/m 4,8 km/h (1 Bft) W-NW 292 -1,1 C 0,5 C 15,2 km/h (3 Bft)
20.02.2020 03:26 18,7 C 0,5 C -0,3 C 0,6 C 39 % 89 % 88 % 1023,0 hPa 0,0 l/m 4,7 km/h (1 Bft) W 270 -1,1 C 0,5 C 15,2 km/h (3 Bft)
20.02.2020 03:24 18,7 C 0,5 C -0,3 C 0,6 C 39 % 89 % 88 % 1023,0 hPa 0,0 l/m 3,9 km/h (1 Bft) W-NW 292 -1,1 C 0,5 C 13,5 km/h (3 Bft)
20.02.2020 03:22 18,7 C 0,5 C -0,3 C 0,6 C 39 % 89 % 89 % 1023,0 hPa 0,0 l/m 4,2 km/h (1 Bft) W 270 -1,1 C 0,5 C 9,9 km/h (2 Bft)
20.02.2020 03:20 18,7 C 0,5 C -0,3 C 0,6 C 39 % 89 % 89 % 1023,0 hPa 0,0 l/m 4,3 km/h (1 Bft) S-SW 202 -1,1 C 0,5 C 15,0 km/h (3 Bft)
20.02.2020 03:18 18,7 C 0,5 C -0,2 C 0,6 C 39 % 89 % 89 % 1023,0 hPa 0,0 l/m 5,3 km/h (1 Bft) N-NW 337 -1,1 C 0,5 C 15,0 km/h (3 Bft)
20.02.2020 03:16 18,7 C 0,5 C 0,0 C 0,6 C 39 % 89 % 89 % 1023,0 hPa 0,0 l/m 5,8 km/h (2 Bft) W 270 -1,1 C 0,5 C 10,4 km/h (2 Bft)
20.02.2020 03:14 18,8 C 0,6 C 0,0 C 0,8 C 39 % 89 % 89 % 1023,0 hPa 0,0 l/m 6,3 km/h (2 Bft) W 270 -1,0 C 0,6 C 10,4 km/h (2 Bft)
20.02.2020 03:12 18,7 C 0,6 C 0,0 C 0,8 C 39 % 89 % 89 % 1023,0 hPa 0,0 l/m 6,3 km/h (2 Bft) W 270 -1,0 C 0,6 C 10,4 km/h (2 Bft)
20.02.2020 03:10 18,8 C 0,6 C 0,0 C 0,8 C 39 % 89 % 89 % 1023,1 hPa 0,0 l/m 6,3 km/h (2 Bft) W 270 -1,0 C 0,6 C 10,4 km/h (2 Bft)
20.02.2020 03:08 18,8 C 0,6 C 0,0 C 0,8 C 39 % 89 % 89 % 1023,1 hPa 0,0 l/m 6,3 km/h (2 Bft) W 270 -1,0 C 0,6 C 10,4 km/h (2 Bft)
20.02.2020 03:06 18,8 C 0,6 C 0,0 C 0,8 C 39 % 89 % 89 % 1023,1 hPa 0,0 l/m 6,3 km/h (2 Bft) W 270 -1,0 C 0,6 C 16,4 km/h (3 Bft)
20.02.2020 03:04 18,8 C 0,6 C 0,0 C 0,8 C 39 % 89 % 89 % 1023,1 hPa 0,0 l/m 6,1 km/h (2 Bft) W-NW 292 -1,0 C 0,6 C 16,4 km/h (3 Bft)
20.02.2020 03:02 18,8 C 0,6 C 0,1 C 0,8 C 39 % 89 % 89 % 1023,1 hPa 0,0 l/m 5,1 km/h (1 Bft) W 270 -1,0 C 0,6 C 12,8 km/h (3 Bft)
20.02.2020 03:00 18,8 C 0,6 C 0,1 C 0,8 C 39 % 89 % 89 % 1023,1 hPa 0,0 l/m 4,3 km/h (1 Bft) W 270 -1,0 C 0,6 C 12,6 km/h (3 Bft)
20.02.2020 02:58 18,8 C 0,6 C 0,2 C 0,8 C 39 % 89 % 89 % 1023,1 hPa 0,0 l/m 4,0 km/h (1 Bft) W 270 -1,0 C 0,6 C 12,6 km/h (3 Bft)
20.02.2020 02:56 18,8 C 0,6 C 0,3 C 0,8 C 39 % 89 % 89 % 1023,1 hPa 0,0 l/m 3,9 km/h (1 Bft) O-SO 112 -1,0 C 0,6 C 14,5 km/h (3 Bft)
20.02.2020 02:54 18,8 C 0,6 C 0,3 C 0,8 C 39 % 89 % 89 % 1023,1 hPa 0,0 l/m 4,0 km/h (1 Bft) W-NW 292 -1,0 C 0,6 C 14,5 km/h (3 Bft)
20.02.2020 02:52 18,8 C 0,7 C 0,3 C 0,8 C 39 % 89 % 89 % 1023,1 hPa 0,0 l/m 4,5 km/h (1 Bft) NW 315 -0,9 C 0,7 C 8,2 km/h (2 Bft)
20.02.2020 02:50 18,8 C 0,7 C 0,3 C 0,8 C 39 % 89 % 89 % 1023,3 hPa 0,0 l/m 5,1 km/h (1 Bft) W 270 -0,9 C 0,7 C 11,3 km/h (2 Bft)
20.02.2020 02:48 18,8 C 0,7 C 0,2 C 0,8 C 39 % 89 % 89 % 1023,3 hPa 0,0 l/m 5,3 km/h (1 Bft) N-NO 22 -0,9 C 0,7 C 11,3 km/h (2 Bft)
20.02.2020 02:46 18,8 C 0,7 C 0,2 C 0,8 C 39 % 89 % 89 % 1023,3 hPa 0,0 l/m 5,5 km/h (1 Bft) W 270 -0,9 C 0,7 C 7,7 km/h (2 Bft)
20.02.2020 02:44 18,8 C 0,7 C 0,2 C 0,8 C 39 % 89 % 89 % 1023,3 hPa 0,0 l/m 5,5 km/h (1 Bft) W 270 -0,9 C 0,7 C 14,5 km/h (3 Bft)
20.02.2020 02:42 18,8 C 0,7 C 0,2 C 0,9 C 39 % 89 % 89 % 1023,3 hPa 0,0 l/m 5,6 km/h (1 Bft) NW 315 -0,9 C 0,7 C 16,9 km/h (3 Bft)
20.02.2020 02:40 18,9 C 0,7 C 0,2 C 0,9 C 39 % 90 % 89 % 1023,3 hPa 0,0 l/m 5,1 km/h (1 Bft) W 270 -0,7 C 0,7 C 16,9 km/h (3 Bft)
20.02.2020 02:38 18,8 C 0,7 C 0,2 C 0,9 C 39 % 90 % 89 % 1023,3 hPa 0,0 l/m 6,0 km/h (2 Bft) W 270 -0,7 C 0,7 C 15,0 km/h (3 Bft)
20.02.2020 02:36 18,9 C 0,7 C 0,1 C 0,9 C 39 % 90 % 89 % 1023,3 hPa 0,0 l/m 6,1 km/h (2 Bft) NW 315 -0,7 C 0,7 C 13,8 km/h (3 Bft)
20.02.2020 02:34 18,9 C 0,7 C 0,2 C 0,9 C 39 % 90 % 89 % 1023,3 hPa 0,0 l/m 6,3 km/h (2 Bft) W 270 -0,7 C 0,7 C 13,8 km/h (3 Bft)
20.02.2020 02:32 18,9 C 0,7 C 0,2 C 0,9 C 39 % 90 % 89 % 1023,3 hPa 0,0 l/m 5,8 km/h (2 Bft) W 270 -0,7 C 0,7 C 8,7 km/h (2 Bft)
20.02.2020 02:30 18,9 C 0,7 C 0,2 C 0,9 C 39 % 90 % 89 % 1023,0 hPa 0,0 l/m 4,8 km/h (1 Bft) W 270 -0,7 C 0,7 C 9,7 km/h (2 Bft)
20.02.2020 02:28 18,9 C 0,7 C 0,2 C 0,9 C 39 % 90 % 89 % 1023,0 hPa 0,0 l/m 4,3 km/h (1 Bft) W 270 -0,7 C 0,7 C 18,3 km/h (3 Bft)
20.02.2020 02:26 18,9 C 0,7 C 0,2 C 0,9 C 39 % 90 % 89 % 1023,0 hPa 0,0 l/m 3,4 km/h (1 Bft) W 270 -0,7 C 0,7 C 18,3 km/h (3 Bft)
20.02.2020 02:24 18,9 C 0,7 C 0,2 C 0,9 C 39 % 90 % 89 % 1023,0 hPa 0,0 l/m 3,5 km/h (1 Bft) W 270 -0,7 C 0,7 C 4,6 km/h (1 Bft)
20.02.2020 02:22 19,0 C 0,7 C 0,2 C 0,9 C 39 % 90 % 89 % 1023,0 hPa 0,0 l/m 2,7 km/h (1 Bft) SW 225 -0,7 C 0,7 C 2,7 km/h (1 Bft)
20.02.2020 02:20 19,0 C 0,6 C 0,1 C 0,8 C 39 % 90 % 90 % 1023,0 hPa 0,0 l/m 3,4 km/h (1 Bft) S-SW 202 -0,8 C 0,6 C 3,1 km/h (1 Bft)
20.02.2020 02:18 19,0 C 0,6 C 0,2 C 0,8 C 39 % 90 % 90 % 1023,0 hPa 0,0 l/m 3,7 km/h (1 Bft) W 270 -0,8 C 0,6 C 5,1 km/h (1 Bft)
20.02.2020 02:16 19,0 C 0,6 C 0,2 C 0,8 C 39 % 90 % 90 % 1023,0 hPa 0,0 l/m 4,7 km/h (1 Bft) O-SO 112 -0,8 C 0,6 C 10,6 km/h (2 Bft)
20.02.2020 02:14 19,0 C 0,6 C 0,2 C 0,8 C 39 % 90 % 90 % 1023,0 hPa 0,0 l/m 4,0 km/h (1 Bft) W-NW 292 -0,8 C 0,6 C 10,6 km/h (2 Bft)
20.02.2020 02:12 19,0 C 0,6 C 0,2 C 0,8 C 39 % 90 % 90 % 1023,0 hPa 0,0 l/m 4,0 km/h (1 Bft) SW 225 -0,8 C 0,6 C 8,9 km/h (2 Bft)
20.02.2020 02:10 19,0 C 0,6 C 0,2 C 0,8 C 39 % 90 % 90 % 1023,2 hPa 0,0 l/m 4,7 km/h (1 Bft) NW 315 -0,8 C 0,6 C 10,1 km/h (2 Bft)
20.02.2020 02:08 19,0 C 0,6 C 0,2 C 0,8 C 39 % 90 % 90 % 1023,2 hPa 0,0 l/m 4,5 km/h (1 Bft) W 270 -0,8 C 0,6 C 11,3 km/h (2 Bft)
20.02.2020 02:06 19,0 C 0,6 C 0,2 C 0,8 C 39 % 90 % 90 % 1023,2 hPa 0,0 l/m 4,8 km/h (1 Bft) NW 315 -0,8 C 0,6 C 11,3 km/h (2 Bft)
20.02.2020 02:04 19,0 C 0,6 C 0,2 C 0,8 C 39 % 90 % 90 % 1023,2 hPa 0,0 l/m 4,8 km/h (1 Bft) N-NW 337 -0,8 C 0,6 C 4,3 km/h (1 Bft)
20.02.2020 02:02 19,0 C 0,6 C 0,2 C 0,8 C 39 % 90 % 90 % 1023,2 hPa 0,0 l/m 5,0 km/h (1 Bft) W-NW 292 -0,8 C 0,6 C 13,0 km/h (3 Bft)
20.02.2020 02:00 19,1 C 0,5 C 0,2 C 0,8 C 39 % 90 % 90 % 1023,2 hPa 0,0 l/m 5,0 km/h (1 Bft) W 270 -0,9 C 0,5 C 14,5 km/h (3 Bft)
20.02.2020 01:58 19,1 C 0,5 C 0,2 C 0,6 C 39 % 90 % 90 % 1023,2 hPa 0,0 l/m 5,1 km/h (1 Bft) W-NW 292 -0,9 C 0,5 C 14,5 km/h (3 Bft)
20.02.2020 01:56 19,1 C 0,6 C 0,2 C 0,6 C 39 % 90 % 90 % 1023,2 hPa 0,0 l/m 5,1 km/h (1 Bft) W-NW 292 -0,8 C 0,6 C 12,6 km/h (3 Bft)
20.02.2020 01:54 19,1 C 0,6 C 0,1 C 0,6 C 39 % 90 % 90 % 1023,2 hPa 0,0 l/m 6,6 km/h (2 Bft) W-NW 292 -0,8 C 0,4 C 45,4 km/h (6 Bft)
20.02.2020 01:52 19,1 C 0,6 C 0,1 C 0,6 C 39 % 90 % 90 % 1023,2 hPa 0,0 l/m 9,2 km/h (2 Bft) NW 315 -0,8 C -2,1 C 7,5 km/h (2 Bft)
20.02.2020 01:50 19,1 C 0,5 C 0,2 C 0,6 C 39 % 90 % 90 % 1023,1 hPa 0,0 l/m 10,5 km/h (2 Bft) W-SW 247 -0,9 C -3,3 C 14,7 km/h (3 Bft)
20.02.2020 01:48 19,1 C 0,5 C 0,2 C 0,6 C 39 % 91 % 90 % 1023,1 hPa 0,0 l/m 10,8 km/h (2 Bft) N-NW 337 -0,8 C -3,5 C 17,9 km/h (3 Bft)
20.02.2020 01:46 19,2 C 0,5 C 0,2 C 0,6 C 39 % 91 % 90 % 1023,1 hPa 0,0 l/m 11,1 km/h (2 Bft) N 360 -0,8 C -3,8 C 19,8 km/h (3 Bft)
20.02.2020 01:44 19,2 C 0,5 C 0,3 C 0,6 C 39 % 91 % 90 % 1023,1 hPa 0,0 l/m 10,0 km/h (2 Bft) SW 225 -0,8 C -2,9 C 34,0 km/h (5 Bft)
20.02.2020 01:42 19,2 C 0,5 C 0,3 C 0,6 C 39 % 91 % 90 % 1023,1 hPa 0,0 l/m 8,5 km/h (2 Bft) W 270 -0,8 C -1,6 C 25,8 km/h (4 Bft)
20.02.2020 01:40 19,2 C 0,5 C 0,3 C 0,6 C 39 % 91 % 90 % 1023,1 hPa 0,0 l/m 6,9 km/h (2 Bft) NW 315 -0,8 C -0,0 C 17,9 km/h (3 Bft)
20.02.2020 01:38 19,2 C 0,5 C 0,2 C 0,6 C 39 % 91 % 90 % 1023,1 hPa 0,0 l/m 5,5 km/h (1 Bft) N-NO 22 -0,8 C 0,5 C 17,9 km/h (3 Bft)
20.02.2020 01:36 19,2 C 0,5 C 0,3 C 0,6 C 39 % 91 % 90 % 1023,1 hPa 0,0 l/m 5,3 km/h (1 Bft) NW 315 -0,8 C 0,5 C 17,9 km/h (3 Bft)
20.02.2020 01:34 19,2 C 0,5 C 0,2 C 0,6 C 39 % 91 % 90 % 1023,1 hPa 0,0 l/m 3,9 km/h (1 Bft) N 360 -0,8 C 0,5 C 12,8 km/h (3 Bft)
20.02.2020 01:32 19,2 C 0,5 C 0,2 C 0,6 C 39 % 91 % 90 % 1023,1 hPa 0,0 l/m 3,4 km/h (1 Bft) NW 315 -0,8 C 0,5 C 9,9 km/h (2 Bft)
20.02.2020 01:30 19,2 C 0,5 C 0,1 C 0,6 C 39 % 91 % 90 % 1023,2 hPa 0,0 l/m 2,6 km/h (1 Bft) W 270 -0,8 C 0,5 C 4,8 km/h (1 Bft)
20.02.2020 01:28 19,3 C 0,5 C 0,2 C 0,6 C 39 % 91 % 90 % 1023,2 hPa 0,0 l/m 2,7 km/h (1 Bft) NW 315 -0,8 C 0,5 C 7,5 km/h (2 Bft)
20.02.2020 01:26 19,3 C 0,4 C 0,2 C 0,6 C 39 % 91 % 90 % 1023,2 hPa 0,0 l/m 3,2 km/h (1 Bft) W-NW 292 -0,9 C 0,4 C 7,5 km/h (2 Bft)
20.02.2020 01:24 19,3 C 0,4 C 0,2 C 0,6 C 39 % 91 % 90 % 1023,2 hPa 0,0 l/m 2,4 km/h (1 Bft) O 90 -0,9 C 0,4 C 7,2 km/h (2 Bft)
20.02.2020 01:22 19,2 C 0,4 C 0,1 C 0,6 C 39 % 91 % 90 % 1023,2 hPa 0,0 l/m 2,1 km/h (1 Bft) N 360 -0,9 C 0,4 C 3,9 km/h (1 Bft)
20.02.2020 01:20 19,2 C 0,4 C 0,1 C 0,6 C 39 % 91 % 90 % 1023,2 hPa 0,0 l/m 2,9 km/h (1 Bft) W 270 -0,9 C 0,4 C 7,2 km/h (2 Bft)
20.02.2020 01:18 19,2 C 0,4 C 0,1 C 0,6 C 39 % 91 % 90 % 1023,2 hPa 0,0 l/m 3,9 km/h (1 Bft) W 270 -0,9 C 0,4 C 10,1 km/h (2 Bft)
20.02.2020 01:16 19,2 C 0,4 C 0,1 C 0,5 C 39 % 91 % 90 % 1023,2 hPa 0,0 l/m 4,5 km/h (1 Bft) W-NW 292 -0,9 C 0,4 C 10,1 km/h (2 Bft)
20.02.2020 01:14 19,4 C 0,4 C 0,1 C 0,5 C 39 % 91 % 90 % 1023,2 hPa 0,0 l/m 5,1 km/h (1 Bft) SO 135 -0,9 C 0,4 C 3,9 km/h (1 Bft)
20.02.2020 01:12 19,4 C 0,4 C 0,2 C 0,5 C 38 % 91 % 90 % 1023,2 hPa 0,0 l/m 6,1 km/h (2 Bft) N-NO 22 -0,9 C 0,4 C 13,0 km/h (3 Bft)
20.02.2020 01:10 19,4 C 0,4 C 0,2 C 0,5 C 38 % 91 % 90 % 1023,0 hPa 0,0 l/m 6,9 km/h (2 Bft) W-NW 292 -0,9 C -0,1 C 13,0 km/h (3 Bft)
20.02.2020 01:08 19,4 C 0,4 C 0,3 C 0,5 C 38 % 91 % 90 % 1023,0 hPa 0,0 l/m 6,1 km/h (2 Bft) W 270 -0,9 C 0,4 C 26,1 km/h (4 Bft)
20.02.2020 01:06 19,4 C 0,4 C 0,3 C 0,5 C 38 % 91 % 90 % 1023,0 hPa 0,0 l/m 6,4 km/h (2 Bft) W 270 -0,9 C 0,4 C 26,1 km/h (4 Bft)
20.02.2020 01:04 19,5 C 0,4 C 0,3 C 0,5 C 38 % 91 % 90 % 1023,0 hPa 0,0 l/m 5,6 km/h (1 Bft) W 270 -0,9 C 0,4 C 11,8 km/h (2 Bft)
20.02.2020 01:02 19,5 C 0,4 C 0,3 C 0,5 C 38 % 91 % 90 % 1023,0 hPa 0,0 l/m 5,8 km/h (2 Bft) S-SO 157 -0,9 C 0,4 C 20,5 km/h (4 Bft)
20.02.2020 01:00 19,5 C 0,4 C 0,3 C 0,5 C 38 % 91 % 90 % 1023,0 hPa 0,0 l/m 6,1 km/h (2 Bft) W 270 -0,9 C 0,4 C 20,5 km/h (4 Bft)
20.02.2020 00:58 19,5 C 0,4 C 0,3 C 0,5 C 38 % 91 % 90 % 1023,0 hPa 0,0 l/m 6,1 km/h (2 Bft) N-NW 337 -0,9 C 0,4 C 15,0 km/h (3 Bft)
20.02.2020 00:56 19,6 C 0,4 C 0,4 C 0,5 C 38 % 91 % 90 % 1023,0 hPa 0,0 l/m 6,8 km/h (2 Bft) W 270 -0,9 C 0,0 C 15,0 km/h (3 Bft)
20.02.2020 00:54 19,6 C 0,4 C 0,4 C 0,5 C 38 % 91 % 90 % 1023,0 hPa 0,0 l/m 8,0 km/h (2 Bft) NW 315 -0,9 C -1,2 C 31,1 km/h (5 Bft)
20.02.2020 00:52 19,6 C 0,4 C 0,4 C 0,5 C 38 % 91 % 90 % 1023,0 hPa 0,0 l/m 9,5 km/h (2 Bft) W-SW 247 -0,9 C -2,6 C 26,1 km/h (4 Bft)
20.02.2020 00:50 19,6 C 0,4 C 0,4 C 0,5 C 38 % 91 % 90 % 1023,3 hPa 0,0 l/m 10,1 km/h (2 Bft) W 270 -0,9 C -3,1 C 26,1 km/h (4 Bft)
20.02.2020 00:48 19,6 C 0,4 C 0,4 C 0,5 C 38 % 91 % 90 % 1023,3 hPa 0,0 l/m 8,9 km/h (2 Bft) W 270 -0,9 C -2,1 C 20,8 km/h (4 Bft)
20.02.2020 00:46 19,6 C 0,4 C 0,4 C 0,5 C 38 % 91 % 90 % 1023,3 hPa 0,0 l/m 9,3 km/h (2 Bft) NW 315 -0,9 C -2,4 C 20,8 km/h (4 Bft)
20.02.2020 00:44 19,6 C 0,3 C 0,4 C 0,5 C 38 % 91 % 90 % 1023,3 hPa 0,0 l/m 8,4 km/h (2 Bft) W 270 -1,0 C -1,7 C 24,1 km/h (4 Bft)
20.02.2020 00:42 19,7 C 0,3 C 0,5 C 0,5 C 38 % 91 % 90 % 1023,3 hPa 0,0 l/m 7,4 km/h (2 Bft) W 270 -1,0 C -0,7 C 24,1 km/h (4 Bft)
20.02.2020 00:40 19,7 C 0,4 C 0,4 C 0,5 C 38 % 91 % 90 % 1023,3 hPa 0,0 l/m 6,4 km/h (2 Bft) W 270 -0,9 C 0,4 C 23,7 km/h (4 Bft)
20.02.2020 00:38 19,7 C 0,4 C 0,4 C 0,5 C 38 % 91 % 90 % 1023,3 hPa 0,0 l/m 6,9 km/h (2 Bft) S 180 -0,9 C -0,1 C 12,6 km/h (3 Bft)
20.02.2020 00:36 19,7 C 0,4 C 0,3 C 0,5 C 38 % 91 % 90 % 1023,3 hPa 0,0 l/m 7,4 km/h (2 Bft) W-SW 247 -0,9 C -0,6 C 21,2 km/h (4 Bft)
20.02.2020 00:34 19,7 C 0,4 C 0,2 C 0,5 C 38 % 91 % 90 % 1023,3 hPa 0,0 l/m 8,2 km/h (2 Bft) N-NO 22 -0,9 C -1,4 C 26,1 km/h (4 Bft)
20.02.2020 00:32 19,7 C 0,4 C 0,2 C 0,5 C 38 % 91 % 90 % 1023,3 hPa 0,0 l/m 8,0 km/h (2 Bft) W-NW 292 -0,9 C -1,2 C 20,8 km/h (4 Bft)
20.02.2020 00:30 19,7 C 0,4 C 0,3 C 0,5 C 38 % 91 % 90 % 1023,3 hPa 0,0 l/m 7,7 km/h (2 Bft) W 270 -0,9 C -0,9 C 23,2 km/h (4 Bft)
20.02.2020 00:28 19,8 C 0,4 C 0,3 C 0,5 C 38 % 91 % 90 % 1023,3 hPa 0,0 l/m 7,1 km/h (2 Bft) W 270 -0,9 C -0,3 C 23,2 km/h (4 Bft)
20.02.2020 00:26 19,8 C 0,4 C 0,3 C 0,5 C 38 % 91 % 90 % 1023,3 hPa 0,0 l/m 6,3 km/h (2 Bft) W 270 -0,9 C 0,4 C 23,4 km/h (4 Bft)
20.02.2020 00:24 19,8 C 0,4 C 0,3 C 0,5 C 38 % 91 % 90 % 1023,3 hPa 0,0 l/m 7,1 km/h (2 Bft) W 270 -0,9 C -0,3 C 23,4 km/h (4 Bft)
20.02.2020 00:22 19,8 C 0,4 C 0,3 C 0,5 C 38 % 91 % 90 % 1023,3 hPa 0,0 l/m 7,6 km/h (2 Bft) W-NW 292 -0,9 C -0,8 C 9,2 km/h (2 Bft)
20.02.2020 00:20 19,8 C 0,4 C 0,2 C 0,5 C 38 % 91 % 90 % 1023,3 hPa 0,0 l/m 8,2 km/h (2 Bft) N-NW 337 -0,9 C -1,4 C 9,2 km/h (2 Bft)
20.02.2020 00:18 19,8 C 0,4 C 0,2 C 0,5 C 38 % 91 % 90 % 1023,3 hPa 0,0 l/m 8,4 km/h (2 Bft) N 360 -0,9 C -1,6 C 9,2 km/h (2 Bft)
20.02.2020 00:16 19,8 C 0,4 C 0,2 C 0,5 C 38 % 91 % 90 % 1023,3 hPa 0,0 l/m 9,2 km/h (2 Bft) W-SW 247 -0,9 C -2,3 C 8,2 km/h (2 Bft)
20.02.2020 00:14 19,9 C 0,4 C 0,3 C 0,5 C 38 % 91 % 90 % 1023,3 hPa 0,0 l/m 7,2 km/h (2 Bft) W 270 -0,9 C -0,4 C 8,2 km/h (2 Bft)
20.02.2020 00:12 19,9 C 0,4 C 0,3 C 0,5 C 38 % 91 % 90 % 1023,3 hPa 0,0 l/m 7,2 km/h (2 Bft) W 270 -0,9 C -0,4 C 8,2 km/h (2 Bft)
20.02.2020 00:10 19,9 C 0,4 C 0,3 C 0,5 C 38 % 91 % 90 % 1023,4 hPa 0,0 l/m 7,2 km/h (2 Bft) W 270 -0,9 C -0,4 C 8,2 km/h (2 Bft)
20.02.2020 00:08 19,9 C 0,4 C 0,3 C 0,5 C 38 % 91 % 90 % 1023,4 hPa 0,0 l/m 7,2 km/h (2 Bft) W 270 -0,9 C -0,4 C 8,2 km/h (2 Bft)
20.02.2020 00:06 20,0 C 0,4 C 0,3 C 0,5 C 38 % 91 % 90 % 1023,4 hPa 0,0 l/m 7,2 km/h (2 Bft) W 270 -0,9 C -0,4 C 23,2 km/h (4 Bft)
20.02.2020 00:04 20,0 C 0,4 C 0,3 C 0,5 C 38 % 91 % 90 % 1023,4 hPa 0,0 l/m 7,4 km/h (2 Bft) W 270 -0,9 C -0,6 C 23,2 km/h (4 Bft)
20.02.2020 00:02 20,0 C 0,3 C 0,4 C 0,5 C 38 % 91 % 90 % 1023,4 hPa 0,0 l/m 6,9 km/h (2 Bft) W-NW 292 -1,0 C -0,2 C 12,6 km/h (3 Bft)
20.02.2020 00:00 20,0 C 0,3 C 0,4 C 0,5 C 38 % 91 % 90 % 1023,4 hPa 0,0 l/m 7,6 km/h (2 Bft) W-SW 247 -1,0 C -0,9 C 12,6 km/h (3 Bft)
_ Min-Zeit 04:46 05:24 05:20 05:22 00:00 04:16 03:24 04:32 - 04:34 - - 05:24 01:46 03:50
Minimum _ 18,4 C -0,6 C -2,9 C -1,8 C 38 % 88 % 88 % 1022,7 hPa - 0,8 km/h (0 Bft) - - -2,3 C -3,8 C 0,0 km/h (0 Bft)
_ Max-Zeit 00:00 02:22 00:42 02:22 05:10 00:00 00:00 00:00 00:00 01:46 - - 02:22 02:22 01:54
Maximum _ 20,0 C 0,7 C 0,5 C 0,9 C 40 % 91 % 90 % 1023,4 hPa 0,0 l/m 11,1 km/h
N (2 Bft)
- - -0,7 C 0,7 C 45,4 km/h
W-NW (6 Bft)
Durchschnitt _ 19,0 C 0,3 C -0,4 C 0,1 C 39 % 90 % 89 % 1023,1 hPa #0,0 l/m 4,5 km/h (1 Bft) W - -1,2 C -0,1 C 11,3 km/h (2 Bft)